Weather in Izyayu

Russia / Komi Republic     65°06′27″N   56°59′35″E
temp.,
°C
wind,
m/s
gust,
m/s
humid.,
%
clouds,
%
prec.,
mm/h
press.,
hPa
HPBL,
m
18 april, sun
sun1800:00−5n5108998 0.3 1025674
03:00−9n4108829 0.3 1030398
06:00−10n48701 0.0 1032343
09:00−7n46570 0.0 1035607
12:00−4n46514 0.0 10361104
15:00−3n4655100 0.0 10371502
18:00−5n3676100 0.1 1037852
21:00−8nnw27895 0.1 1038286
19 april, mon
mon1900:00−9nnw149528 0.0 1038113
03:00−10w119880 0.0 103915
06:00−6w248377 0.0 1038301
09:00−2w346393 0.0 10361096
12:00+1wsw465361 0.0 10341242
15:00+3w475192 0.0 10321208
18:00+1w3961100 0.0 1030330
21:000w4126995 0.0 1029556
20 april, tue
tue2000:00+1w41174100 0.0 1028553
03:000w4127997 0.0 1028495
06:00+1wnw4117721 0.0 1027503
09:00+4wnw477078 0.0 1027832
12:00+4wnw4673100 0.0 10281088
15:00+3wnw3783100 0.0 1029748
18:00+1wnw1188100 0.0 103036
21:00−1w119433 0.0 103012
21 april, wed
wed2100:00−2wsw11965 0.0 103034
03:00−2s11977 0.0 103223
06:00+2ssw13805 0.0 1031141
09:00+6ssw22655 0.0 1031592
12:00+8ssw23609 0.0 1030964
15:00+8s346336 0.0 10291066
18:00+5sse38805 0.0 1029273
21:00+2se4109063 0.0 1028235
22 april, thu
thu2200:00+2sse4138850 0.0 1027278
03:00+2sse41383100 0.0 1026335
06:00+4sse51574100 0.0 1024530
09:00+8sse61562100 0.0 1022915
12:00+10s71552100 0.0 10211372
15:00+11s71550100 0.0 10201817
18:00+9ssw5136298 0.0 10211378
21:00+7ssw51282100 0.0 10221224